Japanese version Home page |
Updated on September 23, 2018 |
|
Orbital ElementsEpoch 2017 Sept. 4.0 TT = JDT 2458000.5 T 2017 Aug. 26.73339 TT MPCW q 2.4985059 (2000.0) P Q n 0.14596971 Peri. 255.97823 -0.67011386 +0.74087742 a 3.5724067 Node 331.78313 -0.63871860 -0.60662554 e 0.3006099 Incl. 5.49255 -0.37813486 -0.28828130 P 6.75 From 105 observations 2010 Mar. 14-2018 Aug. 8, mean residual 0".5.
|
Magnitudes Graphm1 = 9.0 + 5 log d + 20.0 log r
|
The orbital elements are published on M.P.E.C. 2018-S50.
|